Location: L�Ave Maria
(50.7161°N, 1.5911°E)
Time: 00:19:08
(UTC+00:00)

NOSS 0 Rocket - Pass Details

Date: 10 July 2020
Orbit: 935 x 955 km, 70.0° (Epoch: 03 August)

Event Time Altitude Azimuth Distance (km) Brightness Sun altitude
Rises 21:39:24 0° 208° (SSW) 3,581 6.7 -11.0°
Reaches altitude 10° 21:41:54 10° 208° (SSW) 2,643 6.0 -11.2°
Maximum altitude 21:48:03 88° 120° (ESE) 947 3.9 -11.7°
Drops below altitude 10° 21:54:16 10° 32° (NNE) 2,671 6.7 -12.2°
Sets 21:56:49 0° 32° (NNE) 3,622 7.4 -12.4°
